Location: Riverton
(43.0250°N, 108.3790°W)
Time: 01:01:48
(UTC-06:00)

Amateur Radio Satellites - All Passes

Search period start: 03 September 2014 00:31
Search period end: 04 September 2014 00:31
Location: Riverton, 43.0250°N, 108.3790°W

Satellite Date Start Highest point End Downlink Frequencies (MHz)
Time Altitude Azimuth
Sapphire 03 Sep 01:16:45 01:21:57 44° 53° (NE) 01:27:08 437.095 MHz 1200 baud AX-25 AFSK
AO-40 03 Sep 01:31:10 02:54:39 18° 227° (SW) 05:14:18 Beacon 2401.320
KITSAT 1 03 Sep 01:31:47 01:38:47 31° 321° (NW) 01:45:50 435.175 FM
PCSat 03 Sep 01:45:44 01:51:12 79° 59° (ENE) 01:56:37 145.825 MHz
Oscar 19 03 Sep 01:48:42 01:52:26 20° 92° (E) 01:56:08 437.125 CW, 437.150 USB
Oscar 16 03 Sep 02:23:21 02:28:18 42° 98° (E) 02:33:12 437.025 USB, Beacon 2401.1428
ITAMSAT 1 03 Sep 02:29:01 02:32:49 20° 93° (E) 02:36:36 435.822 SSB
Uribyol 2 03 Sep 02:37:40 02:42:00 26° 95° (E) 02:46:18 436.500 FM
TMSAT-1 03 Sep 02:58:02 03:00:18 13° 88° (E) 03:02:33 436.925 FM
AO-27 03 Sep 02:58:17 03:03:08 38° 98° (E) 03:07:56 436.795 MHz FM
Sapphire 03 Sep 03:00:35 03:05:10 28° 251° (WSW) 03:09:43 437.095 MHz 1200 baud AX-25 AFSK
OPAL 03 Sep 03:24:10 03:27:25 17° 58° (ENE) 03:30:42 ?
AO-Echo 03 Sep 03:26:00 03:30:43 78° 103° (ESE) 03:35:27 ?
Oscar 19 03 Sep 03:27:02 03:32:05 53° 289° (WNW) 03:37:07 437.125 CW, 437.150 USB
SO-50 03 Sep 03:27:23 03:31:49 70° 121° (ESE) 03:36:24 436.795 FM
PCSat 03 Sep 03:30:58 03:33:54 15° 256° (WSW) 03:36:50 145.825 MHz
KITSAT 1 03 Sep 03:33:23 03:37:20 14° 349° (N) 03:41:18 435.175 FM
JAS-1B 03 Sep 03:42:36 03:49:15 80° 104° (ESE) 03:55:03 435.800 - 435.900 CW/SSB
Gurwin Techsat 1B 03 Sep 03:46:27 03:51:37 49° 99° (E) 03:56:44 435.225 FM
Oscar 16 03 Sep 04:03:10 04:07:25 26° 296° (WNW) 04:11:39 437.025 USB, Beacon 2401.1428
ITAMSAT 1 03 Sep 04:07:35 04:12:36 52° 289° (WNW) 04:17:37 435.822 SSB
Uribyol 2 03 Sep 04:16:44 04:21:35 41° 291° (WNW) 04:26:26 436.500 FM
Uosat F 03 Sep 04:21:25 04:23:54 14° 90° (E) 04:26:22 435.120 FM
AO-7 03 Sep 04:28:14 04:34:48 25° 93° (E) 04:41:18 29.400 - 29.500 MHz
TMSAT-1 03 Sep 04:35:32 04:40:52 82° 285° (WNW) 04:46:09 436.925 FM
AO-27 03 Sep 04:38:06 04:42:29 28° 295° (WNW) 04:46:52 436.795 MHz FM
OPAL 03 Sep 05:00:40 05:05:43 70° 255° (WSW) 05:10:53 ?
UOSAT-12 03 Sep 05:06:39 05:11:10 57° 119° (ESE) 05:15:47 437.025 FM, 437.400 FM
AO-Echo 03 Sep 05:06:50 05:08:52 13° 300° (WNW) 05:10:55 ?
SO-50 03 Sep 05:09:38 05:12:53 19° 321° (NW) 05:16:12 436.795 FM
Saudisat 1A 03 Sep 05:20:32 05:23:04 15° 36° (NE) 05:25:36 436.775 MHz
Gurwin Techsat 1B 03 Sep 05:27:07 05:31:15 24° 297° (WNW) 05:35:22 435.225 FM
KITSAT 1 03 Sep 05:31:50 05:36:48 17° 21° (NNE) 05:41:45 435.175 FM
JAS-1B 03 Sep 05:34:44 05:38:54 18° 307° (NW) 05:42:46 435.800 - 435.900 CW/SSB
Uosat F 03 Sep 05:58:13 06:03:13 72° 287° (WNW) 06:08:11 435.120 FM
Hamsat 03 Sep 06:15:01 06:18:06 19° 92° (E) 06:21:09 145.90 MHz
TMSAT-1 03 Sep 06:17:54 06:19:56 12° 303° (WNW) 06:21:58 436.925 FM
AO-7 03 Sep 06:20:01 06:28:16 73° 292° (WNW) 06:36:29 29.400 - 29.500 MHz
UOSAT-12 03 Sep 06:47:59 06:51:40 23° 319° (NW) 06:55:25 437.025 FM, 437.400 FM
STRAND 1 03 Sep 06:50:41 06:55:40 60° 72° (ENE) 07:00:42 ?
RS-15 03 Sep 06:57:38 07:07:45 43° 109° (ESE) 07:17:43 29.354 - 29.394 USB, Beacon 29.352 USB
Saudisat 1A 03 Sep 06:58:53 07:03:20 86° 56° (NE) 07:07:44 436.775 MHz
JAS-2 03 Sep 07:04:23 07:09:38 57° 101° (E) 07:15:20 435.800 - 435.900 CW/SSB, 435.910 FM
KITSAT 1 03 Sep 07:26:53 07:34:36 46° 47° (NE) 07:42:16 435.175 FM
SO-67 03 Sep 07:41:25 07:44:07 21° 94° (E) 07:46:47 435.3500 MHz FM
Hamsat 03 Sep 07:50:10 07:54:14 40° 289° (WNW) 07:58:15 145.90 MHz
AO-7 03 Sep 08:14:32 08:19:41 18° 313° (NW) 08:24:49 29.400 - 29.500 MHz
STRAND 1 03 Sep 08:32:01 08:35:16 17° 269° (W) 08:38:32 ?
ISS 03 Sep 08:33:48 08:34:43 11° 130° (SE) 08:35:38 145.800 FM
Saudisat 1A 03 Sep 08:41:30 08:42:13 10° 253° (WSW) 08:42:55 436.775 MHz
JAS-2 03 Sep 08:50:39 08:54:25 20° 297° (WNW) 08:58:23 435.800 - 435.900 CW/SSB, 435.910 FM
RS-15 03 Sep 09:08:53 09:19:44 59° 312° (NW) 09:30:32 29.354 - 29.394 USB, Beacon 29.352 USB
SO-67 03 Sep 09:14:20 09:17:06 22° 291° (WNW) 09:19:51 435.3500 MHz FM
KITSAT 1 03 Sep 09:22:26 09:30:03 48° 248° (WSW) 09:37:38 435.175 FM
HO-68 03 Sep 09:35:07 09:41:33 34° 96° (E) 09:47:56 435.675 MHz FM
UKube-1 03 Sep 09:54:35 09:57:53 21° 94° (E) 10:01:10 145.840 MHz, 145.915 MHz
Oscar 11 03 Sep 09:57:07 09:59:43 15° 91° (E) 10:02:17 145.825 FM, Beacon 2401.500 USB
ISS 03 Sep 10:07:38 10:10:57 85° 146° (SE) 10:14:17 145.800 FM
SO-50 03 Sep 10:18:37 10:21:32 16° 36° (NE) 10:24:28 436.795 FM
FUNcube-1 03 Sep 10:33:20 10:36:12 16° 91° (E) 10:39:04 145.950 - 145.970 MHz USB
HO-68 03 Sep 11:22:36 11:29:24 49° 295° (WNW) 11:36:11 435.675 MHz FM
RS-15 03 Sep 11:26:18 11:35:01 26° 343° (NNW) 11:43:49 29.354 - 29.394 USB, Beacon 29.352 USB
UKube-1 03 Sep 11:30:12 11:34:12 37° 291° (WNW) 11:38:11 145.840 MHz, 145.915 MHz
Oscar 11 03 Sep 11:31:57 11:36:12 51° 288° (WNW) 11:40:24 145.825 FM, Beacon 2401.500 USB
ISS 03 Sep 11:45:13 11:48:00 24° 345° (NNW) 11:50:48 145.800 FM
UOSAT-12 03 Sep 11:56:43 11:59:02 13° 33° (NNE) 12:01:21 437.025 FM, 437.400 FM
SO-50 03 Sep 11:58:02 12:02:51 81° 55° (NE) 12:07:42 436.795 FM
FUNcube-1 03 Sep 12:08:25 12:12:52 53° 287° (WNW) 12:17:21 145.950 - 145.970 MHz USB
MaSat-1 03 Sep 12:11:57 12:16:10 29° 106° (ESE) 12:20:35 437.345 MHz
JAS-1B 03 Sep 12:38:44 12:44:50 20° 55° (NE) 12:50:26 435.800 - 435.900 CW/SSB
AO-Echo 03 Sep 13:03:58 13:06:33 14° 61° (ENE) 13:09:05 ?
Oscar 19 03 Sep 13:06:15 13:10:47 32° 66° (ENE) 13:15:20 437.125 CW, 437.150 USB
HO-68 03 Sep 13:14:58 13:15:25 10° 315° (NW) 13:15:52 435.675 MHz FM
ISS 03 Sep 13:23:06 13:25:33 19° 5° (N) 13:28:00 145.800 FM
Gurwin Techsat 1B 03 Sep 13:32:30 13:34:38 13° 57° (ENE) 13:36:46 435.225 FM
UOSAT-12 03 Sep 13:35:24 13:40:08 64° 53° (NE) 13:44:46 437.025 FM, 437.400 FM
SO-50 03 Sep 13:40:34 13:42:47 13° 252° (WSW) 13:45:01 436.795 FM
Oscar 16 03 Sep 13:41:08 13:46:15 67° 73° (ENE) 13:51:25 437.025 USB, Beacon 2401.1428
RS-15 03 Sep 13:43:24 13:52:18 27° 19° (NNE) 14:01:21 29.354 - 29.394 USB, Beacon 29.352 USB
ITAMSAT 1 03 Sep 13:47:46 13:52:22 34° 67° (ENE) 13:57:00 435.822 SSB
MaSat-1 03 Sep 13:48:18 13:53:01 40° 304° (NW) 13:57:53 437.345 MHz
Uribyol 2 03 Sep 13:56:22 14:01:13 43° 69° (ENE) 14:06:05 436.500 FM
AO-27 03 Sep 14:17:19 14:22:25 64° 72° (ENE) 14:27:33 436.795 MHz FM
TMSAT-1 03 Sep 14:18:59 14:23:05 23° 63° (ENE) 14:27:11 436.925 FM
JAS-1B 03 Sep 14:24:39 14:34:18 77° 72° (ENE) 14:42:45 435.800 - 435.900 CW/SSB
AO-Echo 03 Sep 14:39:47 14:44:46 74° 257° (WSW) 14:49:37 ?
Oscar 19 03 Sep 14:45:24 14:50:03 34° 264° (W) 14:54:45 437.125 CW, 437.150 USB
ISS 03 Sep 14:59:45 15:02:56 39° 25° (NNE) 15:06:05 145.800 FM
Gurwin Techsat 1B 03 Sep 15:08:27 15:13:46 84° 75° (ENE) 15:19:06 435.225 FM
UOSAT-12 03 Sep 15:16:52 15:19:46 16° 251° (WSW) 15:22:38 437.025 FM, 437.400 FM
Oscar 16 03 Sep 15:23:05 15:26:05 15° 270° (W) 15:29:07 437.025 USB, Beacon 2401.1428
ITAMSAT 1 03 Sep 15:27:19 15:31:51 31° 264° (W) 15:36:26 435.822 SSB
AO-7 03 Sep 15:28:03 15:35:35 40° 59° (ENE) 15:43:06 29.400 - 29.500 MHz
Uosat F 03 Sep 15:35:09 15:38:59 23° 63° (ENE) 15:42:49 435.120 FM
Uribyol 2 03 Sep 15:36:43 15:40:51 24° 266° (W) 15:45:01 436.500 FM
RS-15 03 Sep 15:56:29 16:07:27 63° 49° (NE) 16:18:48 29.354 - 29.394 USB, Beacon 29.352 USB
TMSAT-1 03 Sep 15:57:34 16:02:40 49° 261° (W) 16:07:49 436.925 FM
AO-27 03 Sep 15:59:12 16:02:23 16° 269° (W) 16:05:34 436.795 MHz FM
Sapphire 03 Sep 15:59:56 16:04:40 32° 110° (ESE) 16:09:27 437.095 MHz 1200 baud AX-25 AFSK
JAS-1B 03 Sep 16:17:32 16:25:15 27° 268° (W) 16:32:22 435.800 - 435.900 CW/SSB
PCSat 03 Sep 16:28:13 16:33:32 61° 116° (ESE) 16:38:53 145.825 MHz
ISS 03 Sep 16:36:36 16:39:36 31° 222° (SW) 16:42:35 145.800 FM
Gurwin Techsat 1B 03 Sep 16:52:12 16:54:23 12° 272° (W) 16:56:35 435.225 FM
Hamsat 03 Sep 17:09:51 17:12:35 17° 64° (ENE) 17:15:20 145.90 MHz
OPAL 03 Sep 17:10:01 17:14:32 29° 97° (E) 17:18:59 ?
Uosat F 03 Sep 17:12:40 17:17:28 46° 260° (W) 17:22:18 435.120 FM
JAS-2 03 Sep 17:18:46 17:23:32 27° 66° (ENE) 17:27:58 435.800 - 435.900 CW/SSB, 435.910 FM
AO-7 03 Sep 17:20:07 17:28:09 51° 259° (WSW) 17:36:14 29.400 - 29.500 MHz
Sapphire 03 Sep 17:42:55 17:47:59 40° 309° (NW) 17:53:05 437.095 MHz 1200 baud AX-25 AFSK
RS-15 03 Sep 18:09:20 18:19:22 42° 251° (WSW) 18:29:49 29.354 - 29.394 USB, Beacon 29.352 USB
PCSat 03 Sep 18:12:59 18:17:21 24° 315° (NW) 18:21:45 145.825 MHz
Hamsat 03 Sep 18:43:55 18:48:08 50° 261° (W) 18:52:24 145.90 MHz
OPAL 03 Sep 18:48:39 18:53:27 38° 294° (WNW) 18:58:13 ?
STRAND 1 03 Sep 19:01:19 19:04:52 19° 92° (E) 19:08:24 ?
JAS-2 03 Sep 19:02:51 19:08:30 43° 261° (W) 19:13:39 435.800 - 435.900 CW/SSB, 435.910 FM
SO-67 03 Sep 19:47:23 19:50:48 59° 260° (W) 19:54:14 435.3500 MHz FM
HO-68 03 Sep 20:05:14 20:11:12 30° 59° (ENE) 20:17:10 435.675 MHz FM
MaSat-1 03 Sep 20:30:25 20:31:17 10° 39° (NE) 20:32:08 437.345 MHz
STRAND 1 03 Sep 20:39:24 20:44:23 55° 289° (WNW) 20:49:22 ?
UKube-1 03 Sep 20:51:16 20:54:34 22° 65° (ENE) 20:57:53 145.840 MHz, 145.915 MHz
Oscar 11 03 Sep 20:53:43 20:56:08 15° 63° (ENE) 20:58:34 145.825 FM, Beacon 2401.500 USB
Saudisat 1A 03 Sep 21:07:38 21:10:33 18° 111° (ESE) 21:13:29 436.775 MHz
FUNcube-1 03 Sep 21:31:42 21:33:59 14° 62° (ENE) 21:36:18 145.950 - 145.970 MHz USB
HO-68 03 Sep 21:51:29 21:58:29 59° 258° (WSW) 22:05:32 435.675 MHz FM
KITSAT 1 03 Sep 21:58:01 22:04:07 24° 104° (ESE) 22:10:13 435.175 FM
MaSat-1 03 Sep 22:04:51 22:09:22 66° 61° (ENE) 22:13:14 437.345 MHz
UKube-1 03 Sep 22:26:32 22:30:33 37° 262° (W) 22:34:36 145.840 MHz, 145.915 MHz
Oscar 11 03 Sep 22:27:35 22:31:51 58° 260° (W) 22:36:10 145.825 FM, Beacon 2401.500 USB
Saudisat 1A 03 Sep 22:45:25 22:49:44 54° 308° (NW) 22:54:05 436.775 MHz
FUNcube-1 03 Sep 23:05:45 23:09:53 57° 260° (W) 23:14:09 145.950 - 145.970 MHz USB
PCSat 03 Sep 23:33:29 23:36:01 13° 34° (NE) 23:38:32 145.825 MHz
MaSat-1 03 Sep 23:44:17 23:45:28 11° 262° (W) 23:46:36 437.345 MHz
KITSAT 1 03 Sep 23:50:35 23:58:41 78° 303° (WNW) 00:06:49 435.175 FM
Saudisat 1A 04 Sep 00:29:11 00:30:19 11° 329° (NNW) 00:31:26 436.775 MHz
